[[{"header":{"parameterUnit":"m.s-1","parameterCategory":1,"la1":30.2991,"la2":30.254,"lo1":-89.0895,"lo2":-89.0444,"dy":0.0017,"dx":0.0017,"nx":28,"ny":28,"refTime":"2023-08-09T21:00:00:Z","depth":0,"parameterNumber":2,"parameterNumberName":"U-component_of_WINDS"},"data":[0,0,0,0,0,0,0,0,0,0,0,0,0,0,0,0,0,0,0,0,0,0,0,0,0,0,0,0,0,0,0,0,0,0,0,0,0,0,0,0,0,0,0,0,0,0,0,0,0,0,0,0,0,0,0,0,0,0,0.9597,0.9598,0,0.9735,0.9736,0.9738,0.9716,0.9714,0.9712,0.9709,0.9855,0.9861,0.9867,0,0,0,0,0,0,0,0,0,0,0,0,0,0.9317,0.9322,0.9597,0.9598,0.96,0.9735,0.9736,0.9738,0.9717,0.9714,0.9711,0.9708,0.9853,0.986,0.9867,0,0,0,0,0,0,0,0,0,0,0,0,0,0.9445,0.9324,0.9596,0.9605,0.9608,0.9734,0.9737,0.9739,0.9717,0.9714,0.971,0.9707,0.9851,0.9859,0.9868,0.9996,0,0,0.9896,0.99,0,0,0,0,0,0,0,0,0.9438,0.9455,0.9602,0.9605,0.9608,0.9705,0.9691,0.9825,0.9718,0.9676,0.9709,0.9705,0.9808,0.982,0.9854,1.0003,1.0009,0.9897,0.9903,0.9907,0.9909,0,0,0,0,0,0,0,0.9429,0.9449,0.9651,0.9605,0.9608,0.9603,0.9618,0.9716,0.976,0.9679,0.9678,0.9694,0.9809,0.9846,0.9858,1.0011,0.9897,0.9905,0.9911,0.9914,1.0271,1.0275,0,0,0,0,0,0,0.9417,0.9442,0.9647,0.9656,0.9512,0.9611,0.9627,0.9677,0.9759,0.9768,0.9697,0.9693,0.9832,0.9847,0.9863,1.0018,0.9907,0.9915,0.992,1.0267,1.0272,1.0276,0,0,0,0,0,0,0.9411,0.9435,0.9642,0.9548,0.9574,0.962,0.9676,0.9682,0.9718,0.9773,0.9781,0.9727,0.983,0.985,0.9963,1.0022,0.9919,0.9928,1.0262,1.0268,1.0274,1.0329,0,0,0,0,0,0,0.9403,0.9433,0.9482,0.955,0.9579,0.9739,0.968,0.9687,0.9734,0.9729,0.9802,0.9811,0.9828,0.9949,0.9972,1.0033,0.9935,1.0257,1.0265,1.0272,1.0322,1.0336,1.0348,0,0,0,0,0,0.9393,0.9493,0.9485,0.951,0.9641,0.9742,0.9759,0.9776,0.9739,0.9788,0.9823,0.9809,1.0011,0.9961,0.9986,1.0051,1.0253,1.0263,1.0271,1.0316,1.0333,1.0347,0,0,0,0,0,0,0.9434,0.9502,0.9494,0.9618,0.9674,0.9738,0.9802,0.9793,0.9862,0.9856,0.9874,0.9891,1.0005,1.0039,0.9981,1.0179,1.0127,1.0142,1.0153,1.0169,1.0182,1.0173,0.9942,0,0,0,0,0,0.9456,0.9532,0.9588,0.9693,0.9721,0.9756,0.9801,0.9809,0.9868,0.9892,0.9935,0.9994,1.0071,1.0122,1.0195,1.0325,1.0341,1.0382,1.0395,1.0406,1.0419,1.049,1.0509,1.0305,1.0305,1.0305,0,0,0.9506,0.9553,0.96,0.9702,0.9746,0.9825,0.9777,0.9862,0.9921,0.9906,1.0015,1.0048,1.0115,1.0237,1.0293,1.0269,1.0478,1.0417,1.0425,1.0433,1.0501,1.0521,1.0538,1.0312,1.031,1.0309,0,0,0.9636,0.9678,0.977,0.9815,0.9882,0.9904,0.9926,0.9991,1.0012,1.0121,1.011,1.018,1.0313,1.0361,1.0403,1.0548,1.0538,1.0571,1.064,1.0709,1.0725,1.074,1.0793,1.0811,1.0583,1.0584,1.0584,0,0.969,0.9807,0.9819,0.9905,0.9951,0.9937,1.0031,1.0074,1.0162,1.0194,1.0165,1.0329,1.0374,1.0507,1.0542,1.0576,1.0602,1.0564,1.0722,1.0736,1.075,1.0801,1.082,1.0587,1.0587,1.0587,1.0586,0,0.9869,0.995,1.0016,1.01,1.0152,1.0242,1.0268,1.032,1.0322,1.0347,1.0458,1.051,1.0594,1.0625,1.0629,1.0759,1.0742,1.0717,1.0667,1.0773,1.0821,1.084,1.0593,1.0591,1.059,1.0589,0,0,1.0032,1.0119,1.0143,1.0181,1.0252,1.0315,1.0403,1.0484,1.0528,1.0588,1.0664,1.0774,1.0751,1.0798,1.0807,1.0867,1.098,1.0835,1.0837,1.0861,1.1126,1.1146,1.1168,1.0972,1.0976,1.0979,1.1121,0,1.017,1.0325,1.0338,1.0478,1.0553,1.054,1.0617,1.067,1.0695,1.0763,1.0791,1.087,1.0833,1.0861,1.092,1.0953,1.1033,1.0943,1.1044,1.1047,1.103,1.1193,1.1215,1.1347,1.114,1.1143,1.1145,0,1.0353,1.0417,1.0564,1.0624,1.0656,1.0725,1.0798,1.0863,1.0922,1.0936,1.0987,1.0987,1.1078,1.1022,1.1148,1.1086,1.1128,1.115,1.1155,1.1168,1.1105,1.1212,1.139,1.141,1.1175,1.1172,1.117,0,1.0459,1.0581,1.0685,1.0717,1.0789,1.0838,1.087,1.0925,1.0972,1.1036,1.1067,1.1142,1.1183,1.1241,1.1261,1.1218,1.1387,1.1332,1.1403,1.1402,1.1441,1.1439,1.1631,1.1464,1.1464,1.1464,1.1463,0,1.0613,1.0704,1.0733,1.0798,1.0899,1.0912,1.1012,1.1041,1.109,1.116,1.1153,1.1219,1.124,1.131,1.1326,1.1428,1.1447,1.1462,1.1465,1.1464,1.1462,1.1493,1.1486,1.1469,1.1468,1.1467,1.1466,0,1.075,1.0773,1.0885,1.0943,1.0959,1.1032,1.1081,1.1143,1.1165,1.1254,1.1276,1.1312,1.1394,1.1418,1.1517,1.1528,1.1648,1.1643,1.1628,1.1629,1.1699,1.1693,1.1919,1.195,1.1761,1.1763,1.1765,0,1.0848,1.0918,1.0982,1.1027,1.1061,1.1135,1.1182,1.1196,1.1246,1.1316,1.137,1.145,1.1515,1.1646,1.1682,1.1757,1.1755,1.1829,1.1766,1.1762,1.1758,1.1754,1.1762,1.1842,1.1843,1.1845,1.1846,0,1.102,1.1028,1.1095,1.1167,1.1223,1.128,1.1335,1.1373,1.1395,1.1451,1.1534,1.1584,1.1683,1.1763,1.1839,1.1873,1.1865,1.1865,1.1886,1.1886,1.1876,1.1884,1.1663,1.1861,1.1859,1.1858,1.1857,1.1857,1.1142,1.1203,1.1257,1.1333,1.1375,1.1426,1.1487,1.1516,1.1584,1.1665,1.1669,1.1759,1.1815,1.1915,1.1953,1.2023,1.2002,1.2032,1.204,1.2047,1.2054,1.1862,1.2037,1.2037,1.2036,1.2036,1.2036,0,1.1315,1.1349,1.1418,1.1494,1.1553,1.1536,1.1596,1.1647,1.1725,1.1777,1.184,1.1935,1.2012,1.2052,1.2129,1.2178,1.2175,1.2197,1.2195,1.2203,1.2068,1.2043,1.2198,1.2198,1.2198,1.2198,1.2198,1.2198,1.1413,1.1515,1.1528,1.1651,1.1684,1.177,1.1806,1.1853,1.1894,1.1999,1.2063,1.2087,1.2135,1.2214,1.2284,1.2294,1.2324,1.2349,1.2356,1.2229,1.2213,1.2197,1.2174,1.2354,1.2354,1.2487,1.2488,1.2489]},{"header":{"parameterUnit":"m.s-1","parameterCategory":1,"la1":30.2991,"la2":30.254,"lo1":-89.0895,"lo2":-89.0444,"dy":0.0017,"dx":0.0017,"nx":28,"ny":28,"refTime":"2023-08-09T21:00:00:Z","depth":0,"parameterNumber":3,"parameterNumberName":"V-component_of_WINDS"},"data":[0,0,0,0,0,0,0,0,0,0,0,0,0,0,0,0,0,0,0,0,0,0,0,0,0,0,0,0,0,0,0,0,0,0,0,0,0,0,0,0,0,0,0,0,0,0,0,0,0,0,0,0,0,0,0,0,0,0,6.6115,6.6115,0,6.6125,6.6125,6.6126,6.6039,6.6037,6.6034,6.6032,6.6041,6.6044,6.6046,0,0,0,0,0,0,0,0,0,0,0,0,0,6.6018,6.6021,6.6115,6.6115,6.6115,6.6125,6.6125,6.6126,6.6039,6.6036,6.6033,6.6031,6.604,6.6043,6.6046,0,0,0,0,0,0,0,0,0,0,0,0,0,6.6048,6.6021,6.6115,6.6073,6.607,6.6125,6.6125,6.6126,6.604,6.6036,6.6033,6.6029,6.604,6.6043,6.6047,6.6142,0,0,6.6058,6.606,0,0,0,0,0,0,0,0,6.6046,6.6051,6.6079,6.6076,6.6072,6.6077,6.6095,6.6131,6.6041,6.6051,6.6032,6.6028,6.6056,6.6058,6.6068,6.6143,6.6143,6.6059,6.6061,6.6062,6.6064,0,0,0,0,0,0,0,6.6044,6.605,6.6119,6.608,6.6076,6.6054,6.6054,6.6101,6.6074,6.605,6.6044,6.6046,6.6053,6.6065,6.6068,6.6143,6.6058,6.6062,6.6064,6.6066,6.6295,6.6298,0,0,0,0,0,0,6.6048,6.6049,6.6119,6.6119,6.605,6.6058,6.6058,6.6079,6.6073,6.6069,6.6049,6.6042,6.606,6.6063,6.6068,6.6177,6.6062,6.6066,6.6068,6.6291,6.6295,6.63,0,0,0,0,0,0,6.6046,6.6055,6.6118,6.6083,6.6089,6.6064,6.6088,6.6081,6.6092,6.6072,6.6067,6.6066,6.6057,6.6062,6.6124,6.6176,6.6068,6.6071,6.6286,6.6292,6.6298,6.6399,0,0,0,0,0,0,6.6044,6.6055,6.6092,6.6084,6.6091,6.6175,6.6091,6.6084,6.6099,6.609,6.6087,6.6083,6.6055,6.6119,6.6128,6.618,6.6074,6.6281,6.6289,6.6296,6.6391,6.6407,6.6422,0,0,0,0,0,6.6041,6.612,6.6094,6.6103,6.6137,6.6179,6.6182,6.6149,6.6104,6.614,6.6127,6.6083,6.617,6.6126,6.6135,6.6189,6.6278,6.6287,6.6295,6.6384,6.6404,6.6421,0,0,0,0,0,0,6.6134,6.6118,6.6089,6.6168,6.6175,6.6164,6.6208,6.6172,6.6192,6.6183,6.614,6.614,6.6209,6.6205,6.6157,6.628,6.6216,6.6227,6.628,6.6299,6.6314,6.6313,6.6077,0,0,0,0,0,6.6164,6.62,6.6184,6.6255,6.626,6.6234,6.6251,6.6225,6.623,6.6233,6.6224,6.6231,6.6259,6.6279,6.6305,6.639,6.6387,6.6432,6.6447,6.646,6.6469,6.6513,6.6532,6.6328,6.6328,6.6328,0,0,6.6226,6.6221,6.6247,6.6274,6.6276,6.6313,6.6237,6.628,6.6307,6.6239,6.6296,6.6291,6.6295,6.6369,6.6401,6.6368,6.6525,6.6471,6.6481,6.6484,6.6523,6.6543,6.656,6.6334,6.6333,6.6332,0,0,6.6357,6.6358,6.6417,6.6421,6.6425,6.6407,6.6421,6.6415,6.6409,6.6466,6.6415,6.6446,6.6497,6.6502,6.6511,6.6643,6.6603,6.6653,6.6733,6.6776,6.6792,6.6806,6.6852,6.6869,6.6663,6.6663,6.6663,0,6.6433,6.6488,6.6452,6.6498,6.651,6.6451,6.6509,6.6515,6.6527,6.6537,6.65,6.6562,6.6561,6.6634,6.6666,6.6676,6.669,6.6652,6.6793,6.6806,6.6819,6.6862,6.6879,6.6669,6.6668,6.6668,6.6667,0,6.658,6.6619,6.6666,6.6679,6.6697,6.675,6.672,6.6743,6.6715,6.67,6.6758,6.6755,6.6778,6.6794,6.6767,6.6863,6.6842,6.68,6.6734,6.6845,6.6884,6.6901,6.6677,6.6675,6.6673,6.6672,0,0,6.6771,6.6763,6.678,6.6785,6.6785,6.6814,6.6863,6.6886,6.6905,6.6916,6.6955,6.6999,6.6959,6.697,6.6943,6.6981,6.7084,6.6934,6.6933,6.696,6.7188,6.7218,6.7238,6.7058,6.7061,6.7063,6.7187,0,6.6897,6.6981,6.6949,6.7034,6.7068,6.7012,6.7054,6.7059,6.7047,6.7073,6.7059,6.7091,6.7037,6.7043,6.7078,6.7064,6.7129,6.7055,6.7093,6.7094,6.7092,6.7259,6.7292,6.7408,6.7202,6.7205,6.7207,0,6.7057,6.7073,6.7162,6.7155,6.7168,6.7207,6.7224,6.7251,6.7254,6.7242,6.7254,6.7219,6.7265,6.7201,6.7264,6.7214,6.7228,6.7223,6.7227,6.7228,6.7156,6.7263,6.7445,6.7462,6.7231,6.7229,6.7227,0,6.7184,6.7229,6.7287,6.7293,6.7287,6.7315,6.7314,6.7314,6.7329,6.7344,6.7353,6.7374,6.7385,6.7401,6.7372,6.7328,6.7439,6.7372,6.7429,6.743,6.7454,6.7453,6.7639,6.7466,6.7466,6.7465,6.7465,0,6.7329,6.7385,6.7344,6.738,6.7441,6.7404,6.7465,6.7457,6.7457,6.749,6.7443,6.7474,6.7435,6.7463,6.744,6.7495,6.7501,6.7492,6.7485,6.7495,6.7496,6.7502,6.7493,6.747,6.7469,6.7468,6.7467,0,6.7481,6.7457,6.7516,6.7505,6.7504,6.7549,6.7539,6.7571,6.7555,6.7597,6.7605,6.758,6.761,6.7583,6.7612,6.7597,6.7669,6.7652,6.7668,6.7662,6.772,6.7715,6.7916,6.794,6.7753,6.7755,6.7757,0,6.7574,6.7616,6.7609,6.7627,6.7629,6.7659,6.7674,6.7639,6.7656,6.7662,6.7694,6.772,6.7738,6.7789,6.7773,6.7795,6.7776,6.7845,6.7779,6.7788,6.7775,6.7772,6.7776,6.7858,6.786,6.7862,6.7864,0,6.7741,6.7727,6.775,6.7769,6.7788,6.7801,6.7811,6.7829,6.7792,6.7814,6.7844,6.7858,6.7887,6.7913,6.793,6.7928,6.789,6.7885,6.7899,6.7909,6.7916,6.7911,6.7703,6.788,6.7878,6.7877,6.7876,6.7876,6.7866,6.7899,6.7899,6.7926,6.793,6.7939,6.7968,6.7956,6.798,6.8001,6.7979,6.8015,6.8016,6.8034,6.8037,6.8064,6.8035,6.8056,6.8061,6.8066,6.8073,6.7913,6.8067,6.8066,6.8066,6.8066,6.8065,0,6.8029,6.8026,6.8051,6.8065,6.8086,6.8049,6.8057,6.8077,6.8109,6.8114,6.8133,6.8166,6.8191,6.8178,6.8199,6.8223,6.8206,6.823,6.8227,6.8226,6.8099,6.8084,6.8243,6.8243,6.8243,6.8243,6.8243,6.8243,6.8116,6.817,6.8156,6.8211,6.8207,6.8242,6.8249,6.8258,6.8261,6.83,6.832,6.8311,6.8308,6.8328,6.8349,6.8344,6.8353,6.8383,6.8372,6.8253,6.8236,6.8219,6.8204,6.8386,6.8386,6.8497,6.8498,6.8499]}]]